Total_Precipitation_Accumulation
0.78 0.58 0.62 0.59 0.61 0.61 0.57 0.89 1.01 1.12 1.21 1.15 0.39 0.04 0.00 0.00 0.00 0.00 0.00 0.03 0.05 0.09 0.15 0.05 0.00 0.01 0.01 0.00 0.00 0.00 0.00 0.00 0.00 0.00 0.00 0.00 0.00 0.00
0.74 0.69 0.65 0.58 0.55 0.67 0.58 0.47 0.75 0.80 0.63 0.58 0.48 0.11 0.00 0.00 0.00 0.00 0.00 0.02 0.04 0.07 0.11 0.02 0.00 0.00 0.00 0.00 0.00 0.00 0.00 0.00 0.00 0.00 0.00 0.00 0.00 0.00
0.80 0.72 0.68 0.55 0.58 0.52 0.64 0.44 0.39 0.65 0.76 0.52 0.41 0.26 0.07 0.00 0.00 0.00 0.00 0.01 0.04 0.07 0.07 0.02 0.00 0.00 0.00 0.00 0.00 0.00 0.00 0.00 0.00 0.00 0.00 0.00 0.00 0.00
0.66 0.67 0.69 0.64 0.56 0.47 0.42 0.63 0.46 0.46 0.54 0.67 0.83 0.70 0.44 0.09 0.00 0.00 0.00 0.00 0.02 0.06 0.05 0.03 0.00 0.00 0.00 0.00 0.00 0.00 0.00 0.00 0.00 0.00 0.00 0.00 0.00 0.00
0.49 0.51 0.61 0.62 0.71 0.57 0.45 0.38 0.56 0.49 0.47 0.41 0.55 0.60 0.55 0.37 0.12 0.00 0.00 0.00 0.00 0.06 0.07 0.05 0.01 0.00 0.00 0.00 0.00 0.00 0.00 0.00 0.00 0.00 0.00 0.00 0.00 0.00
0.36 0.41 0.46 0.53 0.55 0.55 0.51 0.39 0.39 0.66 0.63 0.47 0.36 0.47 0.71 0.61 0.41 0.07 0.00 0.00 0.00 0.03 0.05 0.05 0.04 0.01 0.00 0.00 0.00 0.00 0.00 0.00 0.00 0.00 0.00 0.00 0.00 0.00
0.33 0.32 0.37 0.50 0.56 0.55 0.54 0.50 0.41 0.47 0.68 0.64 0.53 0.41 0.56 0.66 0.61 0.23 0.02 0.01 0.00 0.00 0.03 0.05 0.06 0.03 0.00 0.00 0.00 0.00 0.00 0.00 0.00 0.00 0.00 0.00 0.00 0.00
0.28 0.38 0.31 0.58 0.72 0.61 0.61 0.59 0.63 0.46 0.40 0.53 0.55 0.39 0.27 0.24 0.28 0.10 0.05 0.04 0.03 0.00 0.00 0.02 0.02 0.02 0.01 0.00 0.00 0.00 0.00 0.00 0.00 0.00 0.00 0.00 0.00 0.00
0.24 0.33 0.35 0.36 0.69 0.68 0.62 0.56 0.50 0.49 0.41 0.37 0.40 0.26 0.19 0.11 0.16 0.15 0.06 0.02 0.01 0.01 0.00 0.00 0.00 0.01 0.01 0.00 0.01 0.00 0.00 0.00 0.00 0.00 0.00 0.00 0.00 0.00
0.20 0.30 0.42 0.32 0.51 0.76 0.73 0.63 0.47 0.38 0.24 0.25 0.22 0.18 0.23 0.24 0.25 0.15 0.03 0.01 0.02 0.01 0.00 0.00 0.00 0.00 0.00 0.00 0.02 0.00 0.00 0.00 0.00 0.00 0.00 0.00 0.00 0.00
0.15 0.25 0.42 0.37 0.49 0.75 0.77 0.65 0.64 0.41 0.34 0.24 0.21 0.28 0.44 0.51 0.45 0.40 0.28 0.24 0.31 0.11 0.03 0.00 0.00 0.00 0.00 0.00 0.00 0.02 0.01 0.00 0.00 0.00 0.00 0.00 0.00 0.00
0.19 0.24 0.49 0.47 0.57 0.63 0.73 0.60 0.60 0.52 0.38 0.39 0.30 0.37 0.39 0.39 0.37 0.32 0.28 0.24 0.16 0.08 0.06 0.03 0.00 0.00 0.02 0.01 0.00 0.01 0.01 0.01 0.01 0.00 0.00 0.00 0.00 0.00
0.24 0.28 0.34 0.38 0.51 0.60 0.69 0.61 0.46 0.44 0.38 0.42 0.33 0.27 0.36 0.42 0.37 0.19 0.10 0.08 0.08 0.03 0.01 0.01 0.01 0.00 0.00 0.00 0.00 0.00 0.00 0.01 0.01 0.01 0.01 0.01 0.00 0.00
0.17 0.17 0.23 0.31 0.33 0.42 0.60 0.65 0.67 0.67 0.66 0.59 0.56 0.48 0.39 0.36 0.29 0.16 0.05 0.02 0.02 0.01 0.01 0.00 0.00 0.00 0.00 0.00 0.01 0.00 0.00 0.00 0.00 0.00 0.00 0.01 0.01 0.00
0.26 0.28 0.33 0.34 0.28 0.36 0.47 0.60 0.87 0.87 0.90 0.84 0.66 0.50 0.33 0.18 0.12 0.11 0.09 0.07 0.03 0.02 0.04 0.04 0.04 0.02 0.01 0.00 0.00 0.00 0.01 0.00 0.00 0.00 0.01 0.01 0.00 0.00
0.44 0.49 0.52 0.59 0.63 0.62 0.84 0.78 0.80 0.75 0.80 0.65 0.48 0.39 0.37 0.25 0.20 0.18 0.17 0.20 0.17 0.09 0.06 0.05 0.06 0.05 0.04 0.00 0.00 0.00 0.00 0.00 0.00 0.00 0.01 0.01 0.01 0.00
0.32 0.52 0.64 0.97 1.22 1.29 1.26 0.98 0.85 0.77 0.81 0.71 0.58 0.45 0.48 0.43 0.31 0.20 0.18 0.17 0.15 0.10 0.09 0.11 0.13 0.07 0.04 0.02 0.00 0.00 0.00 0.00 0.00 0.00 0.00 0.00 0.01 0.00
0.31 0.51 0.50 0.54 0.71 0.81 0.90 0.84 0.72 0.67 0.57 0.66 0.64 0.50 0.43 0.43 0.33 0.23 0.23 0.19 0.14 0.08 0.06 0.08 0.08 0.11 0.11 0.08 0.07 0.02 0.00 0.00 0.00 0.00 0.00 0.00 0.00 0.00
0.39 0.37 0.32 0.29 0.36 0.42 0.49 0.48 0.42 0.40 0.39 0.38 0.43 0.42 0.39 0.35 0.41 0.25 0.22 0.23 0.15 0.09 0.05 0.05 0.05 0.06 0.05 0.02 0.03 0.02 0.00 0.00 0.00 0.00 0.00 0.00 0.00 0.00
0.36 0.24 0.23 0.21 0.24 0.30 0.37 0.39 0.33 0.33 0.37 0.35 0.31 0.31 0.35 0.35 0.32 0.26 0.18 0.19 0.18 0.12 0.09 0.05 0.04 0.04 0.03 0.01 0.01 0.02 0.02 0.01 0.01 0.01 0.01 0.00 0.02 0.04
0.21 0.15 0.14 0.18 0.17 0.27 0.30 0.36 0.36 0.34 0.36 0.39 0.35 0.31 0.32 0.34 0.29 0.19 0.15 0.22 0.20 0.12 0.09 0.05 0.02 0.03 0.03 0.05 0.09 0.11 0.08 0.04 0.03 0.02 0.02 0.02 0.02 0.01
0.16 0.13 0.12 0.15 0.16 0.21 0.32 0.32 0.46 0.49 0.50 0.45 0.41 0.31 0.26 0.26 0.26 0.20 0.17 0.19 0.20 0.09 0.05 0.04 0.06 0.15 0.17 0.16 0.17 0.16 0.14 0.11 0.10 0.09 0.06 0.04 0.02 0.01
0.16 0.13 0.13 0.15 0.16 0.21 0.31 0.34 0.39 0.49 0.49 0.49 0.52 0.39 0.31 0.30 0.32 0.26 0.21 0.17 0.12 0.11 0.09 0.18 0.27 0.30 0.27 0.23 0.22 0.20 0.18 0.16 0.14 0.15 0.14 0.08 0.03 0.01